Temperature
11 12 12 13 12 11 12 13 14 15 16 18 19 19 18 18 18 18 18 18 18 17 16 16 16 16 16 16 16 16 16 16 16 16 16 16 16 16 16 16 16 16 16 16 16 15 16 16 16
11 11 12 12 11 11 12 13 14 16 17 18 19 19 18 18 18 18 17 17 18 17 16 16 16 16 16 16 16 16 16 16 16 16 16 16 16 16 16 16 16 16 16 16 16 16 16 16 16
10 11 12 11 11 12 12 13 14 16 18 18 18 18 18 17 17 17 17 17 17 17 16 16 16 16 16 16 16 16 16 16 16 16 16 16 16 16 16 16 16 16 16 16 16 16 16 16 16
10 11 11 10 11 12 13 14 14 16 17 18 17 17 17 17 17 17 17 17 17 16 16 16 16 16 16 16 16 16 16 16 16 16 16 16 16 16 16 16 16 16 16 16 16 16 16 16 16
10 10 10 10 11 12 12 14 15 16 17 17 17 16 17 17 17 16 16 16 16 16 16 16 16 16 16 16 16 16 16 16 16 16 16 16 16 16 16 16 16 16 16 16 16 16 16 16 16
9 9 9 10 11 12 12 15 15 15 16 16 16 16 16 17 17 16 16 16 16 16 16 16 16 16 16 16 16 16 16 16 16 16 16 16 16 16 16 16 16 16 16 16 16 16 16 16 16
9 8 9 10 10 11 13 15 15 15 15 16 17 16 16 16 16 16 16 16 16 16 16 15 15 16 16 16 16 16 16 16 16 16 16 16 16 16 16 16 16 16 16 16 16 16 16 16 16
9 8 9 9 10 11 13 14 15 15 15 16 17 16 16 16 16 16 16 15 15 15 15 15 15 15 15 15 15 16 16 16 16 16 16 16 16 16 16 16 16 16 16 16 16 16 16 16 16
9 8 8 9 10 11 13 13 14 15 15 15 16 16 16 16 15 15 15 15 15 15 15 15 15 15 15 15 15 15 15 16 16 16 16 17 17 17 17 16 16 16 16 16 16 16 16 16 16
8 7 9 10 10 11 12 13 13 14 14 14 15 15 16 15 15 15 15 15 15 15 15 15 15 15 15 15 15 15 15 16 16 16 16 17 17 17 17 16 16 16 16 16 16 16 16 16 16
7 8 9 10 10 10 11 12 12 13 13 13 14 14 15 15 15 15 15 15 15 15 15 15 15 15 15 15 15 15 15 16 16 16 16 16 17 17 17 17 16 16 16 16 16 16 16 16 15
7 8 9 9 10 10 10 11 12 12 13 14 14 14 14 15 15 15 14 15 15 15 15 15 15 15 15 15 15 15 15 16 16 16 16 16 16 16 17 16 16 16 16 16 16 16 15 15 15
7 8 8 9 9 10 10 10 11 11 13 14 14 14 14 14 14 14 14 15 15 15 15 15 15 15 15 15 15 15 15 16 16 16 16 16 16 16 16 16 16 16 16 16 16 15 15 15 15
7 7 8 8 9 9 10 10 11 11 12 13 13 13 14 14 14 14 14 14 15 15 15 15 15 15 15 15 15 15 15 15 15 16 16 16 16 16 16 16 16 16 16 15 15 15 15 14 14
7 7 7 8 8 9 10 10 10 11 12 12 13 13 13 14 14 14 14 15 15 15 15 15 15 15 15 15 15 15 15 15 15 15 16 16 16 16 16 16 16 16 15 15 15 15 14 14 14
7 7 7 7 8 9 9 9 10 10 11 11 12 13 13 14 14 14 15 15 14 15 15 15 15 15 15 15 15 15 15 15 15 15 15 15 15 15 15 15 15 15 15 15 14 14 14 14 14
6 6 6 7 7 8 9 9 9 10 11 11 11 12 13 13 14 14 14 14 15 15 15 15 15 15 15 15 15 15 15 15 15 15 15 15 15 15 15 15 15 15 14 14 14 14 14 14 14
5 6 6 6 7 7 8 8 9 10 10 10 11 12 13 13 14 14 14 14 14 15 14 14 14 15 15 15 15 15 15 15 15 15 15 15 15 15 15 15 14 14 14 14 14 14 13 13 13
6 6 6 7 7 7 7 8 9 9 10 10 10 11 12 13 14 14 14 14 14 14 14 14 14 14 15 15 14 14 15 15 15 15 15 15 15 15 15 14 14 14 14 14 14 13 13 13 13
6 5 6 7 7 8 7 8 8 9 9 10 10 11 12 13 14 14 14 14 14 14 14 14 14 14 15 15 15 15 15 15 15 15 14 14 14 14 14 14 14 14 14 13 13 13 13 13 13
5 5 6 6 7 7 7 7 8 8 9 10 11 12 12 13 14 14 14 14 14 14 14 15 14 14 14 15 15 14 14 14 14 14 14 14 14 14 14 14 14 14 14 13 13 13 13 13 13
5 6 6 6 6 6 7 7 7 8 8 9 10 11 12 13 14 14 14 14 14 14 14 14 14 14 14 14 14 14 14 14 14 15 14 14 14 14 14 14 14 13 13 13 13 13 13 13 12
6 6 6 6 6 6 6 6 7 7 8 8 9 11 12 13 13 14 14 14 14 14 14 15 14 14 14 14 14 14 14 14 14 14 14 14 14 14 14 13 13 13 13 13 13 13 13 12 12
6 6 6 5 5 5 6 6 6 7 8 8 9 10 11 12 13 13 14 14 14 14 14 14 14 14 14 14 14 14 14 14 14 14 14 14 14 14 13 13 13 13 13 13 13 13 12 12 12
5 5 4 5 4 5 6 6 7 8 8 8 9 10 11 12 12 13 13 14 14 14 15 15 15 15 14 14 14 14 14 14 14 14 14 14 14 13 13 13 13 13 13 13 13 13 12 12 12
5 5 5 5 5 5 6 6 7 8 8 8 9 10 10 11 12 12 13 13 14 14 14 14 15 15 14 14 14 14 14 14 14 14 13 14 13 13 13 13 13 13 13 13 12 12 12 12 11
5 4 5 4 4 5 6 6 6 8 7 7 8 9 10 10 11 12 12 13 13 14 14 14 14 14 14 14 14 14 14 14 14 13 13 13 13 13 13 13 13 13 12 12 12 12 12 11 11
5 5 4 4 5 6 6 6 6 7 7 7 6 7 9 10 11 11 12 12 13 13 14 14 14 14 14 14 14 14 14 13 13 13 13 13 13 13 13 12 12 12 12 12 12 11 11 11 11
5 4 4 4 4 5 5 6 7 6 6 6 6 7 8 9 10 11 11 12 12 13 13 13 14 13 13 13 13 13 13 13 13 13 13 13 12 12 12 12 12 11 11 11 11 11 10 10 10
5 5 4 4 4 4 4 5 7 5 5 6 6 7 8 9 9 10 11 11 11 12 12 12 13 13 13 13 13 13 13 13 12 12 12 12 12 12 11 11 11 11 11 11 10 10 10 10 9
Wind_Speed
7 5 1 2 2 3 9 8 5 5 5 4 3 5 6 7 6 5 3 11 17 18 21 24 24 23 21 20 20 19 18 19 19 20 20 20 21 21 20 21 21 21 20 20 20 19 19 18 18
3 1 2 2 6 9 9 9 8 8 5 2 1 2 3 3 1 6 8 12 18 18 21 23 25 23 22 21 20 19 19 18 19 20 20 20 20 20 20 21 20 20 20 20 19 18 18 17 17
2 1 2 4 8 12 9 7 10 6 4 2 1 0 2 3 5 7 8 16 17 16 20 23 25 24 22 21 20 19 19 19 19 19 20 20 20 20 20 20 20 20 20 19 18 17 17 17 16
1 1 1 5 12 12 8 4 5 4 3 2 3 1 0 1 4 6 14 17 17 15 19 24 25 24 22 21 20 20 19 19 19 20 20 20 20 20 20 19 19 19 19 18 17 17 16 16 16
2 2 4 7 11 9 8 7 3 4 4 3 4 3 2 3 4 12 18 17 17 16 18 23 24 24 22 21 20 20 20 20 19 20 20 20 20 20 19 19 19 18 18 17 16 16 16 15 15
1 2 6 11 11 8 7 7 4 3 3 3 4 3 1 2 10 15 17 16 15 15 16 21 24 23 22 21 20 20 19 19 19 20 19 19 19 19 19 18 18 17 17 16 15 15 14 14 14
3 3 6 7 9 8 8 5 5 5 5 5 5 4 2 5 9 14 15 14 13 14 14 15 19 20 21 20 20 19 19 19 19 19 19 19 19 19 18 18 17 16 15 15 14 13 13 12 12
4 2 4 6 7 8 5 4 4 5 5 3 4 6 6 7 10 12 14 14 13 12 12 12 15 17 17 18 19 19 18 18 19 19 19 19 18 17 17 16 16 15 14 13 12 12 11 10 10
3 3 6 6 5 4 3 4 3 2 3 1 1 2 5 13 14 14 14 13 14 14 12 11 11 13 15 16 17 17 17 18 18 18 19 17 15 15 14 14 14 14 13 12 11 10 9 9 8
4 5 7 4 3 2 4 3 3 1 1 1 1 1 9 15 15 17 17 18 18 17 14 11 11 11 13 14 14 14 14 15 15 16 16 14 13 13 12 13 13 12 11 10 9 8 8 7 7
3 5 3 3 3 3 4 3 3 2 3 3 3 5 12 15 15 15 16 16 16 16 15 13 12 12 11 9 11 11 11 12 13 15 15 13 12 11 10 10 9 9 8 7 6 6 5 5 4
2 3 3 3 4 3 4 3 2 3 4 3 4 7 12 14 16 16 15 15 14 15 15 14 12 11 11 11 10 9 9 10 11 13 14 13 9 8 8 7 7 7 6 5 4 3 3 2 2
2 3 3 4 5 3 3 4 3 5 6 3 2 7 11 13 12 11 11 11 12 13 15 14 13 12 10 9 9 9 9 10 12 13 14 13 9 7 7 7 7 6 6 5 4 3 1 0 0
1 2 3 3 4 3 3 5 2 5 4 1 2 5 7 10 11 10 11 11 12 13 14 14 14 13 11 9 8 8 10 11 12 13 14 15 12 9 7 6 6 6 7 6 5 3 2 1 1
1 1 2 2 2 2 2 3 4 4 1 1 1 1 2 3 7 11 12 12 12 12 12 13 14 14 12 11 10 10 11 12 11 12 15 15 14 12 9 6 5 7 8 6 4 3 2 1 1
1 1 1 2 2 2 1 5 3 2 1 1 1 1 2 3 4 6 8 9 10 12 13 13 12 14 13 11 9 9 11 12 11 12 14 15 15 14 10 6 6 8 8 6 3 2 2 1 1
1 1 2 2 1 2 1 4 4 2 1 2 3 2 2 2 3 3 5 8 10 11 13 13 11 13 14 11 9 8 10 10 11 12 12 14 15 14 11 7 7 9 7 5 3 2 3 2 2
1 1 1 2 2 1 2 5 6 3 1 3 4 4 3 4 5 4 4 6 9 10 12 13 12 11 12 10 7 6 7 7 9 10 11 13 14 15 12 8 8 8 5 4 3 3 2 2 2
1 1 2 3 3 2 4 7 7 5 3 5 5 5 5 6 4 4 4 4 6 8 11 13 13 12 11 9 9 9 9 7 7 8 11 13 14 14 12 7 7 7 6 6 5 3 3 2 2
2 1 1 2 2 2 4 8 7 6 6 7 7 7 7 5 4 3 3 3 5 9 11 12 13 12 12 11 9 6 6 5 6 5 9 12 12 13 12 8 6 6 5 5 5 4 3 2 3
1 1 2 2 1 0 1 5 6 5 5 6 7 7 6 7 6 5 4 5 5 7 9 10 11 12 13 11 7 5 4 3 4 6 6 8 12 12 12 10 7 6 6 6 6 5 5 3 3
1 2 3 2 1 1 1 3 6 4 5 6 7 7 8 8 6 6 6 5 6 7 7 8 9 10 11 11 10 11 9 8 8 8 7 7 10 10 11 10 9 7 6 6 6 5 4 4 3
2 1 0 1 1 1 1 2 6 2 4 7 8 8 9 8 7 7 6 6 6 6 6 7 8 9 10 11 12 12 9 8 6 6 8 8 7 8 9 9 8 7 6 6 6 6 5 4 4
0 2 3 3 2 1 3 3 5 3 6 6 6 7 7 7 7 7 5 4 4 4 5 5 7 8 9 10 11 12 12 9 8 8 8 7 5 5 6 8 7 6 5 6 5 5 5 4 3
4 4 3 3 1 3 2 2 6 6 5 6 7 7 6 5 5 5 5 4 5 6 6 6 7 7 8 10 11 11 12 12 11 10 9 8 6 5 7 6 6 5 5 6 5 5 5 4 4
1 3 3 2 2 3 1 4 6 5 6 5 5 5 4 4 4 4 5 5 5 6 6 7 8 8 7 9 9 9 9 8 8 8 8 8 7 7 7 7 6 6 6 5 5 4 4 3 3
1 1 2 2 0 1 3 5 7 5 7 7 6 4 3 4 4 4 3 2 3 4 5 6 7 6 6 6 6 6 7 7 7 7 6 6 5 5 6 6 6 5 5 5 5 3 3 3 3
1 2 2 2 1 1 3 3 4 8 9 9 8 6 6 4 3 2 2 1 1 1 2 2 4 4 4 5 6 5 6 7 7 7 7 6 6 6 7 7 6 6 5 5 5 4 4 4 3
1 1 1 1 1 2 2 4 2 5 7 8 8 7 6 5 4 3 3 2 1 2 2 1 1 2 3 4 5 6 5 6 7 7 7 7 7 7 7 7 7 6 6 5 5 4 4 4 3
2 2 2 2 2 2 2 5 4 5 6 5 7 7 6 5 4 3 3 3 3 3 2 2 1 2 2 4 5 5 5 6 7 7 7 7 8 7 7 7 7 6 6 5 5 5 4 4 3
Wind_Direction
317 333 59 85 113 192 226 230 216 204 205 202 181 173 176 173 174 195 122 142 139 146 151 149 146 143 140 137 134 133 132 131 131 129 127 126 126 125 123 121 118 116 115 112 108 104 102 100 97
325 338 89 122 188 211 231 223 221 215 198 147 99 142 153 208 156 126 140 147 142 145 148 148 146 144 142 140 138 136 135 135 133 132 130 128 126 125 123 122 120 118 115 111 107 104 103 101 98
312 178 171 170 201 211 224 215 218 232 225 177 135 129 162 185 149 149 153 146 140 143 146 148 146 145 144 143 141 139 138 137 136 134 132 129 127 124 123 122 121 118 115 112 108 106 104 102 99
60 91 164 202 217 217 221 223 201 216 242 202 160 154 294 101 157 152 145 145 141 141 144 148 147 146 145 145 144 141 140 139 138 136 133 130 128 126 124 123 123 120 117 115 111 107 105 103 101
78 145 199 223 226 230 231 250 219 197 200 186 165 174 270 343 129 140 146 146 145 143 145 149 148 147 147 147 146 144 143 141 139 138 135 133 131 129 128 128 127 125 121 118 113 109 107 106 104
121 167 202 220 229 237 240 238 246 217 212 183 163 168 253 114 135 146 148 146 146 145 145 150 149 148 149 150 149 147 146 145 142 140 138 136 134 133 132 133 132 130 126 122 117 112 110 109 107
163 188 211 214 228 238 240 230 218 215 206 205 169 152 145 144 148 148 146 143 144 144 145 146 148 149 150 151 150 149 149 147 145 142 140 138 138 138 137 137 137 135 131 126 121 116 112 110 109
165 175 210 211 217 234 241 243 232 218 216 184 165 163 168 165 150 146 144 146 146 146 146 145 146 148 149 150 151 150 150 148 146 142 139 138 140 140 139 139 139 137 135 130 126 120 114 110 108
142 199 218 210 211 234 254 238 273 278 159 139 189 197 164 148 151 149 150 154 156 155 152 149 147 147 147 150 153 150 150 148 144 141 141 139 139 139 139 141 141 140 139 135 130 122 114 106 103
167 208 223 218 223 269 292 247 237 283 163 135 81 63 135 148 159 161 164 167 166 164 161 157 153 150 149 153 150 148 148 148 144 145 143 142 142 142 144 146 145 143 140 136 130 120 111 105 99
184 212 240 270 270 280 295 294 253 188 218 194 183 168 157 161 167 171 170 171 171 167 165 164 160 156 153 149 150 148 147 148 147 150 150 147 144 144 145 146 147 145 141 133 125 112 109 108 103
204 256 261 279 298 285 288 296 271 219 245 263 223 185 172 174 177 179 178 173 168 170 169 167 164 160 157 154 156 154 153 155 157 159 158 154 151 151 154 155 155 153 151 143 136 126 118 108 102
213 262 288 292 293 289 294 270 257 263 281 301 183 181 183 183 183 180 174 169 168 174 173 171 166 164 161 157 161 164 164 166 168 168 169 167 164 165 166 168 167 168 167 165 161 158 152 115 8
240 248 277 308 305 319 297 269 241 275 293 14 132 176 194 189 182 178 175 175 176 178 176 173 171 169 166 166 166 169 172 173 173 177 180 178 176 175 173 175 178 182 184 184 181 182 183 230 271
295 285 308 280 295 300 305 266 234 270 322 42 162 199 214 205 185 185 184 181 182 184 178 177 178 172 171 173 175 175 177 177 181 185 186 185 184 183 180 180 187 195 193 188 182 184 183 222 248
344 64 288 283 312 312 209 247 269 295 32 315 273 254 241 220 203 189 186 188 187 184 182 181 182 178 178 179 179 178 180 183 189 189 189 191 191 189 183 184 195 197 189 182 174 169 178 213 233
42 154 196 278 273 318 233 261 300 301 158 285 285 269 265 242 236 204 199 196 196 192 186 183 184 185 183 182 182 181 182 187 191 190 190 194 195 193 188 191 194 186 177 178 176 172 176 198 226
189 160 183 222 263 289 275 272 294 291 245 258 274 277 265 246 237 226 206 200 202 195 191 189 187 190 186 182 178 179 182 186 188 190 195 194 196 194 191 192 189 180 171 176 176 180 182 191 206
171 134 196 237 241 232 251 269 279 284 273 266 271 268 263 253 237 224 206 192 196 195 193 192 190 191 187 184 185 188 193 188 186 191 195 196 197 195 192 191 184 180 185 188 178 169 177 191 160
136 176 250 278 227 219 260 273 272 255 243 239 244 249 253 256 259 237 215 209 202 197 194 194 193 193 194 193 189 184 179 183 184 185 194 196 195 194 195 191 188 182 184 182 179 170 167 178 164
42 200 232 260 287 1 306 289 266 265 248 246 244 244 244 238 243 240 217 212 213 209 204 199 195 197 198 193 179 166 153 145 174 192 197 198 197 196 193 190 185 184 185 189 187 181 180 189 189
292 252 219 258 141 308 163 281 280 261 267 252 250 249 247 240 234 236 220 212 208 212 209 206 201 201 198 189 184 186 189 196 199 195 193 191 196 196 193 189 186 184 183 183 185 183 184 178 194
237 307 267 221 132 4 203 218 288 292 266 259 251 250 251 248 237 234 229 223 218 208 202 202 202 206 200 195 192 196 203 204 190 178 180 186 187 189 191 189 185 184 184 184 178 175 182 183 186
116 35 45 49 79 272 224 188 280 252 245 270 262 260 262 259 253 245 238 225 225 205 197 194 199 205 200 194 196 197 201 196 182 183 186 185 183 185 188 185 183 181 180 183 178 174 174 183 185
59 68 38 17 12 257 227 198 256 269 263 253 263 265 263 259 256 255 247 228 225 220 210 197 195 205 203 197 198 200 199 194 195 192 190 183 183 190 192 184 181 178 173 169 162 163 169 176 181
76 120 144 190 232 291 273 239 262 277 291 281 272 273 278 273 267 259 244 233 227 227 223 208 202 204 198 198 197 195 195 192 191 189 185 186 189 189 178 175 171 168 158 153 154 159 161 156 163
117 163 172 140 272 283 266 287 304 318 343 347 339 330 311 290 279 275 267 246 236 230 230 213 203 200 191 190 188 185 186 183 179 174 171 175 167 157 155 158 156 153 147 142 144 140 139 139 142
126 149 97 112 141 287 300 293 298 326 335 341 347 341 325 327 322 321 325 334 304 268 259 217 193 187 182 177 178 180 179 173 164 159 161 159 154 149 150 149 147 142 137 135 135 132 133 130 128
66 80 122 136 158 171 288 287 283 298 313 326 333 336 333 342 343 343 354 356 12 27 16 27 144 152 161 163 164 161 162 159 154 153 156 155 149 149 151 148 142 139 137 136 134 135 134 134 134
179 194 168 172 245 192 205 277 315 333 329 339 343 344 344 351 357 360 11 14 23 30 17 18 58 145 154 144 137 143 145 146 147 147 148 144 142 143 141 137 134 134 135 134 136 140 139 141 148
Height
1494 1496 1499 1502 1505 1509 1505 1498 1492 1490 1490 1488 1489 1490 1491 1493 1497 1499 1492 1493 1498 1503 1509 1514 1518 1521 1523 1526 1528 1530 1532 1534 1536 1538 1540 1542 1544 1547 1549 1550 1552 1554 1555 1556 1558 1559 1560 1561 1562
1492 1494 1498 1499 1502 1506 1501 1491 1490 1486 1485 1486 1487 1488 1488 1489 1489 1489 1489 1493 1498 1503 1508 1513 1517 1520 1523 1526 1528 1530 1532 1534 1537 1539 1541 1543 1545 1548 1550 1552 1553 1555 1557 1558 1560 1561 1562 1563 1564
1490 1492 1495 1495 1496 1496 1493 1486 1485 1483 1483 1484 1486 1487 1487 1488 1488 1488 1489 1493 1499 1504 1508 1513 1517 1520 1523 1526 1528 1531 1533 1535 1538 1540 1542 1545 1547 1549 1551 1553 1555 1557 1558 1560 1561 1563 1564 1565 1566
1489 1491 1492 1493 1490 1487 1485 1482 1481 1482 1483 1483 1484 1486 1487 1488 1488 1488 1490 1494 1499 1504 1509 1513 1517 1520 1523 1526 1529 1531 1534 1536 1539 1541 1543 1546 1548 1550 1552 1554 1556 1558 1560 1562 1563 1565 1566 1567 1568
1487 1488 1490 1489 1486 1483 1481 1480 1480 1480 1481 1482 1483 1484 1485 1487 1488 1489 1491 1495 1500 1504 1509 1514 1517 1520 1524 1526 1529 1532 1534 1537 1539 1542 1544 1547 1549 1551 1553 1555 1557 1559 1561 1563 1565 1566 1568 1569 1570
1486 1486 1488 1487 1484 1480 1479 1479 1479 1479 1480 1481 1482 1484 1485 1487 1488 1490 1493 1497 1502 1505 1510 1514 1518 1521 1524 1527 1530 1533 1535 1538 1540 1543 1545 1548 1550 1552 1554 1557 1559 1561 1563 1565 1566 1568 1569 1570 1571
1484 1485 1484 1484 1482 1480 1478 1478 1478 1478 1478 1479 1480 1483 1484 1487 1489 1491 1494 1499 1503 1507 1510 1514 1518 1521 1524 1527 1530 1533 1536 1538 1541 1543 1546 1549 1551 1553 1556 1558 1560 1562 1564 1566 1568 1569 1570 1572 1573
1481 1484 1483 1482 1481 1479 1476 1476 1476 1476 1476 1478 1479 1481 1483 1486 1489 1492 1495 1500 1504 1507 1511 1514 1518 1521 1524 1527 1531 1533 1536 1539 1542 1544 1547 1549 1552 1554 1556 1559 1561 1563 1565 1567 1568 1570 1571 1573 1574
1480 1485 1482 1480 1478 1476 1474 1475 1475 1475 1475 1476 1477 1479 1481 1485 1489 1492 1495 1500 1503 1507 1510 1514 1518 1521 1524 1527 1531 1534 1536 1539 1542 1545 1547 1550 1552 1555 1557 1560 1562 1564 1566 1568 1569 1570 1572 1573 1574
1479 1481 1478 1476 1476 1475 1474 1474 1474 1474 1474 1475 1476 1478 1481 1484 1487 1489 1492 1496 1500 1504 1509 1513 1517 1521 1524 1527 1530 1533 1536 1539 1542 1545 1547 1550 1553 1555 1558 1560 1562 1564 1566 1568 1570 1571 1572 1573 1575
1476 1476 1475 1474 1474 1474 1474 1473 1473 1473 1474 1474 1475 1477 1480 1483 1486 1489 1490 1494 1498 1503 1507 1512 1516 1520 1523 1527 1530 1533 1536 1539 1542 1545 1547 1550 1553 1555 1558 1560 1562 1564 1566 1568 1570 1571 1572 1574 1575
1476 1475 1474 1473 1474 1473 1474 1473 1473 1473 1473 1472 1473 1476 1478 1481 1483 1486 1489 1492 1496 1501 1505 1511 1515 1519 1523 1526 1529 1532 1535 1538 1541 1544 1547 1550 1552 1555 1557 1560 1562 1564 1566 1568 1570 1571 1572 1573 1574
1475 1474 1474 1473 1473 1473 1472 1473 1473 1472 1471 1471 1472 1475 1478 1480 1482 1485 1488 1491 1495 1499 1503 1508 1513 1518 1522 1525 1528 1531 1534 1537 1540 1543 1546 1549 1552 1554 1557 1559 1561 1564 1566 1567 1569 1570 1572 1573 1574
1474 1474 1473 1473 1472 1471 1472 1472 1472 1471 1471 1471 1472 1475 1477 1479 1481 1484 1487 1490 1493 1497 1502 1506 1511 1516 1520 1524 1527 1530 1533 1537 1540 1543 1545 1549 1551 1554 1556 1559 1561 1563 1565 1567 1568 1570 1571 1572 1573
1474 1475 1474 1473 1473 1473 1473 1472 1471 1470 1471 1471 1472 1474 1477 1478 1481 1483 1485 1489 1492 1496 1500 1504 1509 1514 1518 1522 1526 1529 1532 1535 1538 1542 1544 1547 1550 1553 1555 1557 1560 1562 1564 1565 1567 1568 1569 1571 1571
1475 1476 1477 1475 1474 1473 1477 1474 1470 1470 1470 1471 1472 1473 1475 1477 1479 1482 1484 1487 1491 1494 1498 1502 1506 1511 1516 1520 1524 1527 1531 1534 1537 1540 1543 1546 1549 1551 1554 1556 1558 1560 1562 1564 1565 1567 1568 1569 1570
1477 1479 1479 1477 1475 1474 1475 1473 1469 1469 1469 1470 1471 1472 1474 1476 1477 1480 1482 1485 1488 1492 1495 1499 1503 1508 1513 1518 1522 1526 1529 1532 1535 1538 1541 1544 1547 1549 1552 1554 1556 1558 1560 1562 1563 1564 1566 1567 1567
1481 1480 1479 1479 1476 1475 1475 1473 1469 1469 1469 1469 1470 1471 1472 1474 1476 1478 1480 1483 1486 1490 1493 1497 1501 1505 1510 1515 1520 1523 1526 1529 1532 1536 1538 1541 1544 1547 1549 1551 1554 1555 1557 1559 1560 1562 1563 1564 1565
1479 1479 1480 1478 1475 1476 1475 1473 1469 1468 1468 1468 1468 1469 1470 1472 1474 1476 1478 1480 1483 1487 1491 1494 1497 1501 1506 1510 1514 1518 1522 1525 1529 1532 1536 1539 1541 1544 1546 1548 1550 1552 1554 1556 1558 1559 1560 1561 1562
1478 1480 1479 1476 1474 1474 1474 1471 1467 1466 1466 1466 1466 1467 1467 1469 1472 1474 1475 1478 1481 1483 1487 1491 1495 1498 1502 1505 1510 1514 1519 1522 1526 1529 1532 1535 1538 1541 1543 1545 1547 1549 1551 1553 1555 1556 1557 1558 1559
1479 1481 1480 1478 1475 1473 1475 1472 1467 1463 1462 1463 1463 1463 1464 1466 1469 1471 1473 1476 1478 1481 1484 1488 1491 1495 1498 1502 1506 1511 1515 1519 1522 1525 1528 1532 1535 1537 1540 1542 1544 1546 1548 1549 1551 1552 1554 1555 1556
1480 1478 1477 1477 1478 1479 1477 1478 1467 1464 1463 1461 1460 1461 1462 1464 1466 1468 1471 1474 1476 1479 1482 1485 1488 1492 1495 1498 1502 1505 1509 1512 1516 1520 1524 1528 1531 1533 1536 1538 1540 1542 1544 1546 1547 1549 1550 1551 1551
1479 1477 1477 1477 1479 1481 1478 1479 1471 1465 1464 1460 1458 1458 1458 1460 1463 1465 1467 1470 1473 1476 1479 1481 1485 1488 1491 1494 1498 1502 1505 1509 1512 1516 1519 1523 1526 1529 1531 1534 1536 1538 1539 1541 1543 1544 1545 1546 1547
1478 1479 1479 1481 1482 1485 1480 1479 1474 1468 1462 1458 1456 1455 1456 1457 1460 1461 1464 1467 1470 1473 1476 1479 1482 1484 1487 1491 1495 1498 1501 1504 1508 1511 1515 1518 1521 1524 1527 1529 1531 1533 1535 1537 1538 1540 1541 1542 1543
1480 1486 1490 1490 1491 1487 1479 1478 1472 1461 1458 1456 1454 1453 1454 1455 1456 1457 1460 1463 1466 1469 1472 1476 1478 1481 1483 1487 1490 1494 1497 1500 1503 1507 1511 1514 1517 1519 1522 1524 1526 1528 1530 1532 1534 1535 1536 1538 1539
1483 1486 1492 1492 1490 1486 1479 1477 1468 1460 1456 1454 1453 1452 1452 1452 1453 1454 1457 1459 1463 1466 1469 1472 1474 1477 1480 1483 1487 1490 1493 1495 1498 1503 1506 1509 1512 1515 1517 1519 1522 1523 1525 1527 1529 1531 1532 1533 1534
1483 1486 1487 1491 1489 1486 1480 1475 1466 1457 1455 1454 1452 1451 1450 1451 1451 1452 1454 1457 1460 1462 1465 1468 1470 1473 1476 1479 1483 1486 1489 1492 1495 1498 1502 1505 1507 1510 1512 1515 1517 1519 1520 1522 1524 1526 1527 1528 1529
1483 1484 1488 1490 1489 1483 1478 1476 1472 1463 1459 1456 1454 1452 1451 1450 1451 1452 1453 1455 1458 1460 1462 1464 1466 1469 1472 1475 1479 1482 1485 1488 1491 1494 1497 1500 1502 1505 1508 1511 1513 1515 1516 1518 1520 1521 1523 1523 1524
1486 1486 1487 1490 1489 1489 1484 1478 1467 1466 1462 1459 1456 1453 1451 1450 1451 1451 1453 1455 1456 1458 1460 1462 1464 1466 1469 1472 1475 1478 1481 1484 1487 1490 1493 1496 1498 1501 1503 1506 1508 1510 1512 1514 1515 1517 1518 1519 1520
1484 1485 1486 1488 1490 1490 1488 1481 1465 1465 1462 1459 1457 1454 1452 1451 1452 1452 1453 1454 1455 1456 1458 1459 1461 1464 1466 1469 1472 1475 1478 1480 1483 1486 1489 1492 1494 1497 1499 1502 1504 1506 1508 1510 1511 1512 1513 1514 1514